NOAA NWS Hourly Roundups by Site

Regional Weather Roundup for Phoenix, AZ

To Select Another Site Choose from List

Select Site:  

656
ASUS45 KPSR 131110
RWRAZ

ARIZONA HOURLY REGIONAL WEATHER ROUNDUP
NATIONAL WEATHER SERVICE PHOENIX AZ
400 AM MST FRI DEC 13 2019

NOTE: FAIR INDICATES FEW OR NO CLOUDS BELOW 12,000 FEET WITH NO
SIGNIFICANT WEATHER AND/OR OBSTRUCTIONS TO VISIBILITY.

AZZ001>003-036-131200-
NORTHWEST ARIZONA

CITY           SKY/WX    TMP DP  RH WIND       PRES   REMARKS
BULLHEAD CITY  CLEAR     48  45  87 CALM      30.19S
KINGMAN        CLEAR     37  32  82 CALM      30.22S
$$

AZZ004>008-015-016-018-131200-
NORTH CENTRAL ARIZONA

CITY           SKY/WX    TMP DP  RH WIND       PRES   REMARKS
GRAND CANYON   MOCLDY    26  23  88 NE5       30.28S WCI  20
WILLIAMS       PTCLDY    43  25  49 CALM      30.28R
PRESCOTT       CLEAR     33  27  78 SW5       30.24F WCI  29
FLAGSTAFF      CLEAR     29  24  82 W3        30.27F
PAYSON         CLEAR     39  28  65 CALM      30.26R
PAGE           CLEAR     38  31  76 CALM      30.16F
$$

AZZ009>014-017-131200-
NORTHEAST ARIZONA

CITY           SKY/WX    TMP DP  RH WIND       PRES   REMARKS
WINSLOW        CLEAR     33  29  85 SE6       30.18F WCI  28
SAINT JOHNS    CLEAR     39  29  67 SE5       30.21F
WINDOW ROCK    PTCLDY    40  26  57 SW6       30.19F
SHOW LOW       CLEAR     34  28  80 S6        30.27S WCI  29
$$

AZZ540-542>544-546-548-131200-
GREATER PHOENIX AREA

CITY           SKY/WX    TMP DP  RH WIND       PRES   REMARKS
PHOENIX        PTCLDY    50  44  80 E3        30.17R
BUCKEYE        CLEAR     45  45 100 CALM      30.18R
LUKE AFB       CLEAR     45  45  99 N6        30.16R
DEER VALLEY    CLEAR     47  43  86 N5        30.18R
SCOTTSDALE     CLEAR     46  42  86 CALM      30.18R
MESA-FALCON    CLEAR     50  44  80 NE3       30.18R
MESA-GATEWAY   CLEAR     45  43  91 E6        30.19S
$$

AZZ539-553-131200-
SOUTHWEST MARICOPA COUNTY AND PINAL COUNTY

CITY           SKY/WX    TMP DP  RH WIND       PRES   REMARKS
CASA GRANDE    CLEAR     43  43 100 N3        30.19R FOG
GILA BEND      FAIR      44  43  95 CALM      30.16R
$$

AZZ503-504-507>509-131200-
SOUTHEAST ARIZONA

CITY           SKY/WX    TMP DP  RH WIND       PRES   REMARKS
TUCSON         CLEAR     44  35  70 SE5       30.20S
DAVIS-MONTHAN  CLEAR     41  36  81 CALM      30.18S
NOGALES        CLEAR     37  29  72 CALM      30.21F
SIERRA VISTA   CLEAR     46  30  54 CALM      30.22F
DOUGLAS        CLEAR     36  31  82 E7        30.21F WCI  30
SAFFORD        CLEAR     39  38  96 E5        30.18F
$$

AZZ532-131200-
SOUTHWEST ARIZONA

CITY           SKY/WX    TMP DP  RH WIND       PRES   REMARKS
YUMA           CLEAR     53  40  61 NE6       30.15S
$$

CAZ041-043-047-048-061-525>527-560>570-131200-
SOUTHERN CALIFORNIA

CITY           SKY/WX    TMP DP  RH WIND       PRES   REMARKS
DOWNTOWN L.A.  CLEAR     56  51  84 CALM      30.15F HAZE
L.A. AIRPORT   PTCLDY    56  53  90 E3        30.16F FOG
SAN DIEGO      PTCLDY    54  52  93 CALM      30.18R FOG
BURBANK        CLEAR     52  45  77 N3        30.15F
ONTARIO        PTCLDY    52  43  71 CALM      30.16S
RIVERSIDE      CLEAR     51  43  74 NE5       30.16F
PALM SPRINGS   CLEAR     52  42  69 NW8       30.16F
EL CENTRO NAS  CLEAR     49  38  65 MISG      30.17F
IMPERIAL       CLEAR     48  42  80 SW3       30.14F
BLYTHE         CLEAR     48  43  82 SE5       30.16F
NEEDLES        CLEAR     47  42  83 SW7       30.19F
$$

NVZ020-UTZ003-131200-
SOUTHERN NEVADA-UTAH

CITY           SKY/WX    TMP DP  RH WIND       PRES   REMARKS
LAS VEGAS      PTCLDY    44  36  73 NW3       30.23R
SALT LAKE CITY LGT RAIN  38  35  89 S6        30.20R WCI  33
$$

NMZ009-TXZ055-131200-
NEW MEXICO-WEST TEXAS

CITY           SKY/WX    TMP DP  RH WIND       PRES   REMARKS
ALBUQUERQUE    MOCLDY    34  24  67 SE6       30.14F WCI  29
EL PASO        NOT AVBL
$$


........................KEY........................
SKY/WX - SKY CONDITION/WEATHER
TMP    - TEMPERATURE IN FAHRENHEIT
DP     - DEW POINT IN FAHRENHEIT
RH     - RELATIVE HUMIDITY IN PERCENT
WIND   - DIRECTION AND SPEED IN MILES PER HOUR (MPH)
VRB    - VARIABLE WIND DIRECTION
PRES   - MEAN SEA LEVEL PRESSURE IN INCHES OF MERCURY
         F - FALLING PRESSURE   R - RISING PRESSURE
         S - STEADY PRESSURE
VSB    - VISIBILITY IN MILES
HX     - HEAT INDEX IN FAHRENHEIT
WCI    - WIND CHILL INDEX IN FAHRENHEIT
TC     - TEMPERATURE IN CELSIUS WHICH IS ALSO KNOWN AS
         TEMPERATURE IN CENTIGRADE
AFB    - AIR FORCE BASE
         LUKE AFB IS LUKE AIR FORCE BASE
         DAVIS-MONTHAN IS DAVIS-MONTHAN AIR FORCE BASE
NAS    - NAVAL AIR STATION
         EL CENTRO NAS IS EL CENTRO NAVAL AIR STATION
N/A    - NOT AVAILABLE




 

View Past Reports for Phoenix, AZ.

Products Courtesy of NOAA-NWS
NWS Information Parsing Script by Ken True at Saratoga Weather - Script by SE Lincoln Weather.